Weather History for Cape Girardeau, MO

Change the Weather History Date:

Friday, January 18, 2013

  Actual Average Record
Temperature  
Mean Temperature 33 °F 33 °F  
Max Temperature 44 °F 42 °F 66 °F (1989)
Min Temperature 22 °F 24 °F -10 °F (1994)
Degree Days  
Heating Degree Days 32 32  
Month to date heating degree days 527 576  
Since 1 July heating degree days 2151 2327  
Cooling Degree Days 0 0  
Month to date cooling degree days 0 0  
Year to date cooling degree days 0 0  
Moisture  
Dew Point 27 °F    
Average Humidity 77    
Maximum Humidity 96    
Minimum Humidity 57    
Precipitation  
Precipitation 0.00 in 0.11 in 1.67 in (1973)
Month to date precipitation 2.71 2.00  
Year to date precipitation 2.71 2.00  
Sea Level Pressure  
Sea Level Pressure 30.45 in    
Wind  
Wind Speed 7 mph (SSW)    
Max Wind Speed 16 mph    
Max Gust Speed 21 mph    
Visibility 10 miles    
Events      
T = Trace of Precipitation, MM = Missing Value Source: NWS Daily Summary

Daily Weather History Graph

Daily Weather History Graph

Search for Another Location

Airport:

Trip Planner

Search our weather history database for the weather conditions in past years. The results will help you decide how hot, cold, wet, or windy it might be!

Date:

Astronomy

Jan. 18, 2013 Rise Set
Actual Time 7:09 AM CST 5:08 PM CST
Civil Twilight 6:41 AM CST 5:36 PM CST
Nautical Twilight 6:09 AM CST 6:08 PM CST
Astronomical Twilight 5:38 AM CST 6:39 PM CST
Moon 10:59 AM CST (1/18) No Moon Set
Length of Visible Light 10h 54m
Length of Day
9h 58m
Waxing Crescent, 47% of the Moon is Illuminated
Jan 18
Waxing Crescent
Jan 18
First Quarter
Jan 26
Full
Feb 3
Last Quarter
Feb 10
New

Hourly Weather History & Observations

Time (CST) Temp. Windchill Dew Point Humidity Pressure Visibility Wind Dir Wind Speed Gust Speed Precip Events Conditions
12:53 AM 28.0 °F - 21.9 °F 78% 30.53 in 10.0 mi Calm Calm - N/A   Clear
1:53 AM 26.1 °F - 21.9 °F 84% 30.53 in 10.0 mi Calm Calm - N/A   Clear
2:53 AM 25.0 °F 20.7 °F 23.0 °F 92% 30.53 in 10.0 mi West 3.5 mph - N/A   Clear
3:53 AM 25.0 °F 20.7 °F 21.9 °F 88% 30.54 in 10.0 mi West 3.5 mph - N/A   Clear
4:53 AM 25.0 °F 20.7 °F 21.9 °F 88% 30.54 in 10.0 mi WSW 3.5 mph - N/A   Clear
5:53 AM 25.0 °F - 21.9 °F 88% 30.54 in 10.0 mi Calm Calm - N/A   Clear
6:53 AM 23.0 °F - 21.0 °F 92% 30.54 in 10.0 mi Calm Calm - N/A   Clear
7:53 AM 25.0 °F - 21.9 °F 88% 30.55 in 10.0 mi Calm Calm - N/A   Clear
8:53 AM 28.9 °F 25.2 °F 24.1 °F 82% 30.57 in 10.0 mi West 3.5 mph - N/A   Clear
9:53 AM 35.1 °F 29.3 °F 25.0 °F 67% 30.56 in 10.0 mi South 6.9 mph - N/A   Clear
10:53 AM 37.0 °F 29.8 °F 26.1 °F 65% 30.54 in 10.0 mi South 10.4 mph - N/A   Clear
11:53 AM 39.0 °F 33.4 °F 26.1 °F 60% 30.50 in 10.0 mi SSW 8.1 mph - N/A   Clear
12:53 PM 41.0 °F 33.5 °F 28.0 °F 60% 30.45 in 10.0 mi South 13.8 mph - N/A   Clear
1:53 PM 42.1 °F 36.6 °F 28.9 °F 60% 30.42 in 10.0 mi South 9.2 mph - N/A   Clear
2:53 PM 43.0 °F 35.7 °F 30.9 °F 62% 30.40 in 10.0 mi South 15.0 mph - N/A   Clear
3:53 PM 43.0 °F 36.0 °F 32.0 °F 65% 30.37 in 10.0 mi South 13.8 mph 20.7 mph N/A   Clear
4:53 PM 42.1 °F 39.2 °F 32.0 °F 67% 30.37 in 10.0 mi SSW 4.6 mph - N/A   Clear
5:53 PM 37.9 °F 34.4 °F 30.9 °F 76% 30.36 in 10.0 mi South 4.6 mph - N/A   Clear
6:53 PM 39.0 °F 33.4 °F 32.0 °F 76% 30.35 in 10.0 mi SSW 8.1 mph - N/A   Clear
7:53 PM 39.0 °F 32.3 °F 32.0 °F 76% 30.34 in 10.0 mi SSW 10.4 mph - N/A   Clear
8:53 PM 37.9 °F 30.9 °F 30.9 °F 76% 30.32 in 10.0 mi South 10.4 mph - N/A   Clear
9:53 PM 39.0 °F 32.8 °F 30.0 °F 70% 30.31 in 10.0 mi SSW 9.2 mph - N/A   Clear
10:53 PM 39.0 °F 32.8 °F 30.0 °F 70% 30.29 in 10.0 mi SSW 9.2 mph - N/A   Clear
11:53 PM 39.0 °F 31.0 °F 28.9 °F 67% 30.28 in 10.0 mi SSW 13.8 mph - N/A   Clear